Home   Weather   Alwar   Past weeks
Flag for India

Past Weather in Alwar, Rajasthan, India — Yesterday and Last 2 Weeks

Now
88 °F

Scattered clouds.


Feels Like: 86 °F
Forecast: 90 / 67 °F
Wind: 5 mph from Southeast

Location: Jaipur / Sanganer

Current Time: Oct 17, 2019 at 6:51:08 pm

Latest Report: Oct 17, 2019 at 6:00 pm


Visibility: 2 mi

Pressure: 29.92 "Hg

Humidity: 33%

Dew Point: 55 °F

Location of AlwarLocation

Past Weather in Alwar — Graph

°F

Alwar Temperature Yesterday

Maximum temperature yesterday: 93 °F (at 1:00 pm)
Minimum temperature yesterday: 73 °F (at 5:00 am)
Average temperature yesterday: 83 °F

High & Low Weather Summary for the Past Weeks

 TemperatureHumidityPressure
High95 °F (Oct 13, 2:30 pm)94% (Oct 7, 4:00 pm)30.04 "Hg (Oct 7, 4:00 pm)
Low70 °F (Oct 12, 3:00 am)19% (Oct 13, 4:30 pm)29.80 "Hg (Oct 3, 4:30 pm)
Average82 °F51%29.92 "Hg
* Reported Oct 2 5:30 pm — Oct 17 5:30 pm, Alwar. Weather by CustomWeather, © 2019

Note: Actual official high and low records may vary slightly from our data, if they occured in-between our weather recording intervals... More about our weather records

Advertising

Alwar Weather History for the Previous 24 Hours

Scroll right to see more
 ConditionsComfort  
Time TempWeatherWind HumidityBarometerVisibility
5:30 pm
Thu, Oct 17
90 °FScattered clouds.6 mph33%29.89 "Hg2 mi
5:00 pm91 °FScattered clouds.3 mph32%29.89 "Hg2 mi
4:30 pm91 °FScattered clouds.3 mph26%29.89 "Hg3 mi
4:00 pm93 °FPartly sunny.2 mph26%29.89 "Hg3 mi
3:30 pm91 °FPartly sunny.3 mph30%29.92 "Hg3 mi
3:00 pm91 °FPartly sunny.5 mph30%29.92 "Hg3 mi
2:30 pm91 °FScattered clouds.5 mph32%29.92 "Hg3 mi
2:00 pm91 °FPartly sunny.6 mph34%29.92 "Hg3 mi
1:30 pm91 °FScattered clouds.6 mph32%29.95 "Hg3 mi
1:00 pm90 °FScattered clouds.6 mph33%29.95 "Hg3 mi
12:30 pm90 °FScattered clouds.3 mph33%29.98 "Hg3 mi
12:00 pm90 °FScattered clouds.3 mph36%30.01 "Hg2 mi
11:30 am88 °FScattered clouds.3 mph38%30.01 "Hg2 mi
11:00 am88 °FScattered clouds.3 mph40%30.01 "Hg2 mi
10:30 am86 °FHaze.3 mph40%30.04 "Hg2 mi
10:00 am84 °FHaze.3 mph45%30.04 "Hg2 mi
9:30 am84 °FHaze.3 mph45%30.04 "Hg2 mi
9:00 am81 °FHaze.3 mph51%N/A2 mi
8:30 am79 °FHaze.6 mph54%30.04 "Hg1 mi
8:00 am77 °FWarm.3 mph61%30.01 "Hg1 mi
7:30 am75 °FMild.3 mph65%30.01 "Hg1 mi
7:00 am73 °FPassing clouds.3 mph65%30.01 "Hg1 mi
6:30 am73 °FHaze.3 mph65%29.98 "Hg1 mi
6:00 am73 °FHaze.No wind65%29.98 "Hg1 mi
5:30 am73 °FHaze.No wind65%29.98 "Hg1 mi
5:00 am75 °FHaze.No wind61%29.98 "Hg1 mi
4:30 am75 °FHaze.No wind61%29.95 "Hg2 mi
4:00 am75 °FHaze.No wind61%29.95 "Hg2 mi
3:30 am77 °FHaze.1 mph57%29.98 "Hg2 mi
3:00 am77 °FHaze.No wind54%29.95 "Hg2 mi
2:00 am77 °FHaze.No wind54%29.98 "Hg2 mi
1:30 am77 °FHaze.2 mph54%29.98 "Hg2 mi
1:00 am79 °FHaze.3 mph51%29.98 "Hg2 mi
12:30 am79 °FHaze.3 mph48%29.98 "Hg2 mi
12:00 am79 °FHaze.5 mph48%29.98 "Hg2 mi
11:30 pm
Wed, Oct 16
81 °FHaze.6 mph45%29.98 "Hg2 mi
11:00 pm82 °FHaze.8 mph42%29.98 "Hg2 mi
10:00 pm81 °FHaze.3 mph42%29.98 "Hg2 mi
9:30 pm81 °FHaze.3 mph42%29.98 "Hg2 mi
9:00 pm82 °FHaze.No wind40%29.95 "Hg2 mi
8:30 pm84 °FPassing clouds.2 mph37%29.95 "Hg2 mi
8:00 pm84 °FHaze.2 mph37%29.95 "Hg2 mi
7:30 pm84 °FPassing clouds.3 mph37%29.95 "Hg2 mi
7:00 pm86 °FPassing clouds.3 mph38%29.92 "Hg2 mi
6:30 pm88 °FPassing clouds.3 mph31%29.92 "Hg2 mi
6:00 pm90 °FScattered clouds.3 mph29%29.92 "Hg2 mi
Weather by CustomWeather, © 2019

See weather overview